Back to catalog

STARLINK-31396

AliveCommunicationsVLEO
NORAD 59409·PAYLOAD·🇺🇸 United States

Launched Apr 5, 2024 from Cape Canaveral Space Force Station

Loading…

Next Passes (next 24 hours)

TLE

FreshSource: CelesTrak SupGP

Epoch: Sep 14, 2026, 22:23 UTC

1 59409C 24064M   26257.93312500  .00071417  00000+0  25862-2 0  2579
2 59409  43.0040  56.9211 0001700 269.6327 299.1056 15.27548810    11

Track STARLINK-31396 in real time with AllMySat

Download on the App Store